Location: Aranbee
(34.0885°N, 118.2342°W)
Time: 09:30:35
(UTC+00:00)

Courier 1B Rocket - Pass Details

Date: 29 November 2020
Orbit: 920 x 1202 km, 28.2° (Epoch: 27 January)

Event Time Altitude Azimuth Distance (km) Brightness Sun altitude
Rises 12:42:42 0° 235° (SW) 4,065 - -23.7°
Reaches altitude 10° 12:45:43 10° 228° (SW) 3,117 - -23.1°
Exits shadow 12:46:49 14° 224° (SW) 2,794 7.1 -22.8°
Maximum altitude 12:52:50 39° 162° (SSE) 1,713 6.5 -21.6°
Drops below altitude 10° 12:59:53 10° 97° (E) 3,092 8.8 -20.2°
Sets 13:02:52 0° 90° (E) 4,028 9.7 -19.6°
